Cecil Field, FL

11:29 PM EDT on July 22, 2017 (GMT -0400)
Cecil

Weather History for KVQQ - June, 2013

Change the Weather History Date:

Tuesday, June 18, 2013

  Actual Average (KNIP) Record (KNIP)
Temperature  
Mean Temperature 80 °F -  
Max Temperature 91 °F 87 °F 100 °F (1998)
Min Temperature 68 °F 72 °F 72 °F (2002)
Cooling Degree Days 14    
Growing Degree Days 30 (Base 50)    
Moisture  
Dew Point 72 °F    
Average Humidity 84    
Maximum Humidity 100    
Minimum Humidity 52    
Precipitation  
Precipitation 0.00 in - - ()
Sea Level Pressure  
Sea Level Pressure 30.00 in    
Wind  
Wind Speed 4 mph (SW)    
Max Wind Speed 17 mph    
Max Gust Speed -    
Visibility 9 miles    
Events      
Averages and records for this station are not official NWS values.
T = Trace of Precipitation, MM = Missing Value Source: NWS Daily Summary

Daily Weather History Graph

Daily Weather History Graph

Search for Another Location

Airport or City:

Trip Planner

Search our weather history database for the weather conditions in past years. The results will help you decide how hot, cold, wet, or windy it might be!

Date:

Astronomy

Jun. 18, 2013 Rise Set
Actual Time 6:25 AM EDT 8:31 PM EDT
Civil Twilight 5:58 AM EDT 8:59 PM EDT
Nautical Twilight 5:24 AM EDT 9:32 PM EDT
Astronomical Twilight 4:48 AM EDT 10:08 PM EDT
Moon 3:30 PM EDT (6/18) 2:15 AM EDT (6/18)
Length of Visible Light 15h 00m
Length of Day
14h 05m
Waxing Gibbous, 70% of the Moon is Illuminated
Jun 18
Waxing Gibbous
Jun 23
Full
Jun 30
Last Quarter
Jul 8
New
Jul 15
First Quarter

Hourly Weather History & Observations

Time (EDT) Temp. Heat Index Dew Point Humidity Pressure Visibility Wind Dir Wind Speed Gust Speed Precip Events Conditions
12:15 AM 75.2 °F - 71.6 °F 89% 30.04 in 10.0 mi SW 5.8 mph - N/A   Clear
12:35 AM 75.2 °F - 71.6 °F 89% 30.04 in 10.0 mi SW 3.5 mph - N/A   Clear
12:55 AM 73.4 °F - 71.6 °F 94% 30.05 in 10.0 mi Calm Calm - N/A   Clear
1:15 AM 73.4 °F - 71.6 °F 94% 30.04 in 10.0 mi Calm Calm - N/A   Clear
1:35 AM 71.6 °F - 71.6 °F 100% 30.03 in 8.0 mi Calm Calm - N/A   Clear
1:55 AM 71.6 °F - 71.6 °F 100% 30.02 in 9.0 mi Calm Calm - N/A   Clear
2:15 AM 71.6 °F - 71.6 °F 100% 30.01 in 10.0 mi South 3.5 mph - N/A   Clear
2:35 AM 71.6 °F - 71.6 °F 100% 30.00 in 10.0 mi South 4.6 mph - N/A   Clear
2:55 AM 71.6 °F - 71.6 °F 100% 30.00 in 10.0 mi South 3.5 mph - N/A   Clear
3:15 AM 71.6 °F - 71.6 °F 100% 29.99 in 9.0 mi South 3.5 mph - N/A   Clear
3:35 AM 71.6 °F - 71.6 °F 100% 29.99 in 8.0 mi South 3.5 mph - N/A   Clear
3:55 AM 73.4 °F - 71.6 °F 94% 30.00 in 10.0 mi SSW 5.8 mph - N/A   Clear
4:15 AM 71.6 °F - 71.6 °F 100% 30.00 in 7.0 mi Calm Calm - N/A   Clear
4:35 AM 71.6 °F - 71.6 °F 100% 30.00 in 6.0 mi Calm Calm - N/A   Clear
4:55 AM 69.8 °F - 69.8 °F 100% 30.00 in 5.0 mi Calm Calm - N/A   Clear
5:15 AM 69.8 °F - 69.8 °F 100% 30.01 in 5.0 mi Calm Calm - N/A   Clear
5:35 AM 68.0 °F - 68.0 °F 100% 30.02 in 4.0 mi Calm Calm - N/A   Clear
5:55 AM 68.0 °F - 68.0 °F 100% 30.02 in 4.0 mi Calm Calm - N/A   Clear
6:15 AM 69.8 °F - 69.8 °F 100% 30.02 in 5.0 mi SW 3.5 mph - N/A   Clear
6:35 AM 71.6 °F - 71.6 °F 100% 30.02 in 4.0 mi SSW 4.6 mph - N/A   Clear
6:50 AM 71.6 °F - 71.6 °F 100% 30.02 in 10.0 mi SSW 4.6 mph - N/A   Clear
7:50 AM 73.4 °F - 73.4 °F 100% 30.03 in 10.0 mi North - - N/A   Clear
8:50 AM 78.8 °F - 73.4 °F 83% 30.04 in 10.0 mi WSW 5.8 mph - N/A   Clear
9:50 AM 82.4 °F 88.2 °F 73.4 °F 74% 30.05 in 10.0 mi WSW 8.1 mph - N/A   Scattered Clouds
10:50 AM 82.4 °F 88.2 °F 73.4 °F 74% 30.05 in 10.0 mi WSW 9.2 mph - N/A   Mostly Cloudy
11:50 AM 86.0 °F 91.8 °F 71.6 °F 62% 30.04 in 10.0 mi WSW 17.3 mph - N/A   Scattered Clouds
12:50 PM 87.8 °F 95.6 °F 73.4 °F 62% 30.03 in 10.0 mi WSW 15.0 mph - N/A   Scattered Clouds
1:50 PM 89.6 °F 96.2 °F 71.6 °F 55% 30.01 in 10.0 mi West 11.5 mph - N/A   Scattered Clouds
2:50 PM 91.4 °F 98.4 °F 71.6 °F 52% 29.99 in 10.0 mi WSW 11.5 mph - N/A   Scattered Clouds
3:50 PM 91.4 °F 98.4 °F 71.6 °F 52% 29.97 in 10.0 mi WSW 11.5 mph - N/A   Scattered Clouds
4:50 PM 91.4 °F 98.4 °F 71.6 °F 52% 29.95 in 10.0 mi North - - N/A   Scattered Clouds
5:50 PM 91.4 °F 98.4 °F 71.6 °F 52% 29.94 in 10.0 mi SW 8.1 mph - N/A   Scattered Clouds
6:50 PM 89.6 °F 96.2 °F 71.6 °F 55% 29.94 in 10.0 mi SW 11.5 mph - N/A   Scattered Clouds
7:50 PM 84.2 °F 89.6 °F 71.6 °F 66% 29.95 in 10.0 mi SW 8.1 mph - N/A   Scattered Clouds
8:15 PM 84.2 °F 89.6 °F 71.6 °F 66% 29.95 in 10.0 mi SSW 6.9 mph - N/A   Clear
8:35 PM 82.4 °F 87.2 °F 71.6 °F 70% 29.96 in 10.0 mi SSW 6.9 mph - N/A   Clear
8:55 PM 82.4 °F 87.2 °F 71.6 °F 70% 29.96 in 10.0 mi SW 5.8 mph - N/A   Clear
9:15 PM 80.6 °F 84.6 °F 71.6 °F 74% 29.97 in 10.0 mi SSW 4.6 mph - N/A   Clear
9:35 PM 80.6 °F 85.4 °F 73.4 °F 79% 29.97 in 10.0 mi SSW 5.8 mph - N/A   Clear
9:55 PM 78.8 °F - 73.4 °F 83% 29.98 in 10.0 mi SW 6.9 mph - N/A   Clear
10:15 PM 78.8 °F - 71.6 °F 78% 29.99 in 10.0 mi South 5.8 mph - N/A   Clear
10:35 PM 78.8 °F - 73.4 °F 83% 30.00 in 10.0 mi SSW 4.6 mph - N/A   Clear
10:55 PM 77.0 °F - 71.6 °F 83% 30.00 in 10.0 mi SSW 5.8 mph - N/A   Clear
11:15 PM 77.0 °F - 71.6 °F 83% 30.00 in 10.0 mi SSW 6.9 mph - N/A   Clear
11:35 PM 77.0 °F - 73.4 °F 89% 30.01 in 10.0 mi SSW 5.8 mph - N/A   Clear
11:55 PM 77.0 °F - 73.4 °F 89% 30.01 in 10.0 mi SSW 6.9 mph - N/A   Clear